IT9NKT-WX Weather Reports


Display with metric or nautical units.
time (UTC)temp
F
wind
direction
speed
MPH
gust
MPH
rain 1hr
in
rain 24hr
in
rain mn
in
humidity
%
barometer
mb
20260831002213 86 170 1.0 2.0 0.00 0.00 0.00 56 1014.2
20260831001503 86 173 1.0 2.0 0.00 0.00 0.00 59 1014.2
20260831001003 87 184 1.0 2.0 0.00 0.00 0.00 60 1014.5
20260831000505 87 190 1.0 3.0 0.00 0.00 0.00 60 1014.6
20260831000004 87 176 1.0 3.0 0.00 0.00 0.00 60 1014.7
20260830235503 87 172 1.0 2.0 0.00 0.00 0.00 60 1014.6
20260830235004 87 191 1.0 3.0 0.00 0.00 0.00 59 1014.9
20260830234505 87 189 1.0 3.0 0.00 0.00 0.00 59 1014.7
20260830234003 87 170 1.0 2.0 0.00 0.00 0.00 59 1014.8
20260830233503 87 173 1.0 3.0 0.00 0.00 0.00 58 1014.8
20260830233003 88 181 1.0 3.0 0.00 0.00 0.00 56 1014.9
20260830232715 88 188 1.0 3.0 0.00 0.00 0.00 55 1014.8
20260830232004 88 177 0.0 1.0 0.00 0.00 0.00 53 1014.9
20260830231503 88 181 0.0 1.0 0.00 0.00 0.00 52 1014.6
20260830230503 88 193 0.0 2.0 0.00 0.00 0.00 52 1014.5
20260830230215 88 183 0.0 1.0 0.00 0.00 0.00 52 1014.6
20260830225503 88 161 0.0 1.0 0.00 0.00 0.00 52 1014.7
20260830225003 88 182 0.0 1.0 0.00 0.00 0.00 52 1014.6
20260830224503 88 189 0.0 1.0 0.00 0.00 0.00 52 1014.7
20260830224003 88 196 0.0 1.0 0.00 0.00 0.00 53 1014.5
20260830223503 88 154 0.0 1.0 0.00 0.00 0.00 53 1014.5
20260830223003 88 164 0.0 1.0 0.00 0.00 0.00 53 1014.6
20260830222504 88 192 0.0 2.0 0.00 0.00 0.00 53 1014.7
20260830222214 88 185 0.0 2.0 0.00 0.00 0.00 52 1014.6
20260830221503 88 184 0.0 2.0 0.00 0.00 0.00 52 1014.9
20260830221003 88 188 0.0 2.0 0.00 0.00 0.00 52 1014.8
20260830220503 88 191 0.0 2.0 0.00 0.00 0.00 52 1014.8
20260830220011 89 185 1.0 3.0 0.00 0.00 0.00 51 1014.8
20260830215714 89 184 1.0 3.0 0.00 0.00 0.00 51 1014.8
20260830215217 89 181 0.0 2.0 0.00 0.00 0.00 51 1014.8
20260830214503 89 183 0.0 2.0 0.00 0.00 0.00 50 1014.8
20260830214004 89 168 0.0 1.0 0.00 0.00 0.00 50 1014.7
20260830213503 89 173 0.0 1.0 0.00 0.00 0.00 49 1014.8
20260830213004 89 168 0.0 1.0 0.00 0.00 0.00 49 1014.9
20260830212504 89 182 0.0 1.0 0.00 0.00 0.00 49 1014.9
20260830212003 90 186 0.0 1.0 0.00 0.00 0.00 49 1014.8
20260830211504 90 180 0.0 2.0 0.00 0.00 0.00 49 1014.8
20260830211004 90 180 0.0 2.0 0.00 0.00 0.00 49 1015.0
20260830210503 90 183 0.0 1.0 0.00 0.00 0.00 48 1014.9
20260830210003 90 189 0.0 1.0 0.00 0.00 0.00 48 1014.9
20260830205503 90 191 0.0 1.0 0.00 0.00 0.00 48 1014.8
20260830205004 90 197 0.0 1.0 0.00 0.00 0.00 48 1014.9
20260830204504 90 187 0.0 1.0 0.00 0.00 0.00 48 1014.9
20260830204003 90 172 0.0 1.0 0.00 0.00 0.00 47 1015.1
20260830203717 90 172 0.0 1.0 0.00 0.00 0.00 47 1014.8
20260830203215 91 177 0.0 1.0 0.00 0.00 0.00 47 1014.8
20260830202503 91 187 0.0 1.0 0.00 0.00 0.00 47 1014.8
20260830202004 91 184 0.0 1.0 0.00 0.00 0.00 47 1014.8
20260830201713 91 188 0.0 1.0 0.00 0.00 0.00 47 1014.9
20260830201004 91 181 0.0 1.0 0.00 0.00 0.00 47 1014.9
20260830200504 91 174 0.0 1.0 0.00 0.00 0.00 46 1014.7
20260830200004 92 175 0.0 1.0 0.00 0.00 0.00 46 1014.6
20260830195504 92 179 0.0 1.0 0.00 0.00 0.00 45 1014.6
20260830195003 92 197 0.0 2.0 0.00 0.00 0.00 45 1014.7
20260830194503 92 199 0.0 2.0 0.00 0.00 0.00 45 1014.6
20260830194003 92 199 1.0 4.0 0.00 0.00 0.00 45 1014.7
20260830193503 93 211 0.0 4.0 0.00 0.00 0.00 45 1014.5
20260830193004 93 211 0.0 2.0 0.00 0.00 0.00 44 1014.4
20260830192503 93 190 0.0 2.0 0.00 0.00 0.00 44 1014.6
20260830192004 93 199 0.0 2.0 0.00 0.00 0.00 44 1014.4
20260830191503 93 206 0.0 2.0 0.00 0.00 0.00 43 1014.4
20260830191004 94 185 1.0 2.0 0.00 0.00 0.00 43 1014.2
20260830190504 94 167 1.0 2.0 0.00 0.00 0.00 43 1014.2
20260830190003 94 166 1.0 3.0 0.00 0.00 0.00 43 1014.2
20260830185716 94 177 1.0 3.0 0.00 0.00 0.00 43 1014.3
20260830185004 94 174 1.0 2.0 0.00 0.00 0.00 42 1014.2
20260830184503 94 168 1.0 2.0 0.00 0.00 0.00 42 1013.9
20260830184004 94 132 1.0 4.0 0.00 0.00 0.00 42 1013.7
20260830183718 95 117 1.0 4.0 0.00 0.00 0.00 42 1013.8
20260830183003 95 236 2.0 4.0 0.00 0.00 0.00 42 1013.8
20260830182504 95 244 3.0 4.0 0.00 0.00 0.00 42 1013.7
20260830182003 95 245 4.0 8.0 0.00 0.00 0.00 41 1013.8
20260830181504 95 233 4.0 8.0 0.00 0.00 0.00 41 1013.5
20260830181004 95 223 3.0 7.0 0.00 0.00 0.00 41 1013.5
20260830180503 95 196 0.0 7.0 0.00 0.00 0.00 41 1013.4
20260830180004 96 176 0.0 2.0 0.00 0.00 0.00 43 1013.4
20260830175503 96 166 0.0 2.0 0.00 0.00 0.00 42 1013.5
20260830175004 96 141 1.0 6.0 0.00 0.00 0.00 42 1013.2
20260830174503 96 141 1.0 6.0 0.00 0.00 0.00 42 1013.2
20260830174003 96 164 1.0 2.0 0.00 0.00 0.00 42 1013.3
20260830173714 97 160 1.0 2.0 0.00 0.00 0.00 41 1013.1
20260830173003 97 161 1.0 3.0 0.00 0.00 0.00 41 1013.2
20260830172714 98 169 1.0 3.0 0.00 0.00 0.00 41 1013.2
20260830172003 98 253 4.0 9.0 0.00 0.00 0.00 40 1013.0
20260830171504 98 256 9.0 9.0 0.00 0.00 0.00 40 1012.8
20260830171003 98 259 6.0 13.0 0.00 0.00 0.00 38 1012.9
20260830170716 98 257 4.0 13.0 0.00 0.00 0.00 38 1012.9
20260830170003 99 148 1.0 2.0 0.00 0.00 0.00 39 1012.9
20260830165503 99 164 1.0 2.0 0.00 0.00 0.00 39 1013.0
20260830165004 100 208 1.0 4.0 0.00 0.00 0.00 39 1012.9
20260830164503 100 260 1.0 4.0 0.00 0.00 0.00 39 1012.9
20260830164004 100 185 0.0 2.0 0.00 0.00 0.00 38 1012.8
20260830163503 101 179 1.0 2.0 0.00 0.00 0.00 37 1012.8
20260830163003 101 202 1.0 3.0 0.00 0.00 0.00 36 1012.7
20260830162503 102 215 0.0 3.0 0.00 0.00 0.00 35 1012.8
20260830162003 101 60 0.0 1.0 0.00 0.00 0.00 35 1012.7
20260830161506 101 159 1.0 3.0 0.00 0.00 0.00 35 1012.7
20260830161004 102 199 1.0 4.0 0.00 0.00 0.00 35 1012.9
20260830160504 102 115 4.0 8.0 0.00 0.00 0.00 35 1012.9
20260830160004 102 88 6.0 8.0 0.00 0.00 0.00 34 1012.8
20260830155503 101 86 6.0 8.0 0.00 0.00 0.00 31 1012.8
20260830155003 101 74 3.0 8.0 0.00 0.00 0.00 31 1012.6
20260830154504 102 54 1.0 6.0 0.00 0.00 0.00 32 1012.6
20260830154004 101 70 1.0 6.0 0.00 0.00 0.00 35 1012.5
20260830153504 100 107 1.0 3.0 0.00 0.00 0.00 36 1012.6
20260830153004 100 166 1.0 3.0 0.00 0.00 0.00 38 1012.6
20260830152503 100 125 1.0 6.0 0.00 0.00 0.00 38 1012.9
20260830152003 98 103 2.0 6.0 0.00 0.00 0.00 38 1012.7
20260830151505 98 113 1.0 4.0 0.00 0.00 0.00 39 1012.7
20260830151003 99 118 1.0 4.0 0.00 0.00 0.00 39 1012.6
20260830150504 98 104 2.0 7.0 0.00 0.00 0.00 39 1012.6
20260830150003 97 118 2.0 7.0 0.00 0.00 0.00 41 1012.6
20260830145505 98 112 2.0 6.0 0.00 0.00 0.00 40 1012.6
20260830145217 97 112 2.0 5.0 0.00 0.00 0.00 41 1012.6
20260830144504 98 136 2.0 8.0 0.00 0.00 0.00 39 1012.8
20260830144003 98 95 2.0 8.0 0.00 0.00 0.00 38 1012.7
20260830143715 98 75 2.0 6.0 0.00 0.00 0.00 35 1012.8
20260830143004 98 64 2.0 6.0 0.00 0.00 0.00 36 1012.9
20260830142503 98 53 2.0 7.0 0.00 0.00 0.00 35 1013.0
20260830142004 98 114 2.0 7.0 0.00 0.00 0.00 36 1012.9
20260830141504 99 115 2.0 7.0 0.00 0.00 0.00 34 1012.9
20260830141004 98 88 2.0 7.0 0.00 0.00 0.00 34 1013.0
20260830140504 101 90 1.0 6.0 0.00 0.00 0.00 32 1012.9
20260830140003 101 79 2.0 10.0 0.00 0.00 0.00 33 1012.9
20260830135714 100 79 3.0 10.0 0.00 0.00 0.00 33 1013.1
20260830135003 99 89 2.0 9.0 0.00 0.00 0.00 36 1013.3
20260830134715 99 106 2.0 6.0 0.00 0.00 0.00 37 1013.2
20260830134004 99 97 2.0 6.0 0.00 0.00 0.00 37 1013.5
20260830133504 98 88 2.0 7.0 0.00 0.00 0.00 37 1013.4
20260830133008 98 100 2.0 7.0 0.00 0.00 0.00 38 1013.5
20260830132503 100 69 2.0 6.0 0.00 0.00 0.00 36 1013.6
20260830132004 98 60 2.0 6.0 0.00 0.00 0.00 38 1013.8
20260830131504 98 88 3.0 8.0 0.00 0.00 0.00 38 1013.6
20260830131003 98 84 3.0 8.0 0.00 0.00 0.00 37 1013.9
20260830130503 98 77 2.0 8.0 0.00 0.00 0.00 37 1013.8
20260830130004 98 81 2.0 8.0 0.00 0.00 0.00 38 1013.9
20260830125715 98 78 2.0 6.0 0.00 0.00 0.00 36 1013.9
20260830125213 98 70 3.0 9.0 0.00 0.00 0.00 35 1014.0
20260830124504 98 68 2.0 7.0 0.00 0.00 0.00 37 1014.1
20260830124214 98 65 2.0 6.0 0.00 0.00 0.00 37 1014.0
20260830123503 98 84 2.0 10.0 0.00 0.00 0.00 37 1014.1
20260830123004 98 102 3.0 10.0 0.00 0.00 0.00 38 1014.3
20260830122504 98 115 2.0 8.0 0.00 0.00 0.00 39 1014.4
20260830122003 97 89 3.0 9.0 0.00 0.00 0.00 40 1014.4
20260830121504 97 84 3.0 9.0 0.00 0.00 0.00 41 1014.4
20260830121216 98 78 2.0 9.0 0.00 0.00 0.00 42 1014.6
20260830120714 98 72 2.0 8.0 0.00 0.00 0.00 39 1014.5
20260830120218 100 81 3.0 10.0 0.00 0.00 0.00 38 1014.4
20260830115504 99 132 2.0 9.0 0.00 0.00 0.00 41 1014.6
20260830115003 110 186 2.0 6.0 0.00 0.00 0.00 25 1014.1
20260830114503 110 185 2.0 6.0 0.00 0.00 0.00 25 1014.1
20260830114004 111 192 1.0 3.0 0.00 0.00 0.00 24 1014.0
20260830113504 110 191 1.0 4.0 0.00 0.00 0.00 25 1014.3
20260830113004 110 192 1.0 4.0 0.00 0.00 0.00 25 1014.1
20260830112504 110 201 1.0 4.0 0.00 0.00 0.00 25 1014.2
20260830112003 108 200 2.0 4.0 0.00 0.00 0.00 25 1014.3
20260830111714 109 199 2.0 4.0 0.00 0.00 0.00 25 1014.3
20260830111004 109 191 1.0 6.0 0.00 0.00 0.00 26 1014.4
20260830110503 109 186 1.0 3.0 0.00 0.00 0.00 25 1014.4
20260830110004 108 195 2.0 3.0 0.00 0.00 0.00 25 1014.4
20260830105504 108 192 2.0 6.0 0.00 0.00 0.00 26 1014.3
20260830105005 108 187 2.0 6.0 0.00 0.00 0.00 26 1014.5
20260830104503 107 185 2.0 3.0 0.00 0.00 0.00 26 1014.4
20260830104003 107 170 2.0 7.0 0.00 0.00 0.00 27 1014.6
20260830103718 107 161 2.0 7.0 0.00 0.00 0.00 26 1014.6
20260830103216 107 159 2.0 4.0 0.00 0.00 0.00 26 1014.7
20260830102503 107 195 2.0 9.0 0.00 0.00 0.00 26 1014.8
20260830102004 107 188 2.0 9.0 0.00 0.00 0.00 27 1014.8
20260830101503 107 191 2.0 4.0 0.00 0.00 0.00 26 1014.6
20260830101213 107 191 2.0 4.0 0.00 0.00 0.00 26 1014.7
20260830100503 107 181 2.0 4.0 0.00 0.00 0.00 26 1014.8
20260830100003 107 184 1.0 4.0 0.00 0.00 0.00 26 1015.0
20260830095504 106 177 2.0 4.0 0.00 0.00 0.00 27 1014.8
20260830095003 107 166 1.0 4.0 0.00 0.00 0.00 27 1015.0
20260830094505 107 180 2.0 4.0 0.00 0.00 0.00 26 1015.0
20260830094004 106 182 2.0 4.0 0.00 0.00 0.00 26 1015.0
20260830093503 106 187 2.0 7.0 0.00 0.00 0.00 26 1015.1
20260830093004 106 191 2.0 7.0 0.00 0.00 0.00 26 1015.1
20260830092503 106 181 1.0 6.0 0.00 0.00 0.00 26 1015.1
20260830092003 106 181 1.0 6.0 0.00 0.00 0.00 26 1015.1
20260830091504 106 180 1.0 4.0 0.00 0.00 0.00 26 1015.3
20260830091213 105 187 2.0 4.0 0.00 0.00 0.00 26 1015.3
20260830090505 105 192 2.0 3.0 0.00 0.00 0.00 26 1015.2
20260830090004 105 182 2.0 4.0 0.00 0.00 0.00 27 1015.4
20260830085712 105 185 2.0 4.0 0.00 0.00 0.00 26 1015.3
20260830085215 105 211 3.0 13.0 0.00 0.00 0.00 27 1015.3
20260830084505 105 218 12.0 13.0 0.00 0.00 0.00 26 1015.2
20260830084216 101 218 11.0 17.0 0.00 0.00 0.00 26 1015.4
20260830083503 101 202 3.0 17.0 0.00 0.00 0.00 26 1015.4
20260830083004 104 170 2.0 4.0 0.00 0.00 0.00 27 1015.4
20260830082503 104 175 1.0 4.0 0.00 0.00 0.00 27 1015.3
20260830082003 104 173 1.0 3.0 0.00 0.00 0.00 27 1015.3
20260830081503 104 169 1.0 3.0 0.00 0.00 0.00 28 1015.2
20260830081003 103 182 1.0 3.0 0.00 0.00 0.00 28 1015.1
20260830080504 103 205 6.0 11.0 0.00 0.00 0.00 28 1014.9
20260830080004 103 206 11.0 11.0 0.00 0.00 0.00 28 1015.3
20260830075505 98 205 7.0 12.0 0.00 0.00 0.00 28 1015.1
20260830075004 98 201 2.0 12.0 0.00 0.00 0.00 28 1015.1
20260830074503 101 201 2.0 6.0 0.00 0.00 0.00 29 1015.0
20260830074003 100 201 4.0 5.0 0.00 0.00 0.00 29 1015.0
20260830073503 94 210 5.0 6.0 0.00 0.00 0.00 31 1015.3
20260830073003 94 216 4.0 9.0 0.00 0.00 0.00 31 1015.0
20260830072716 94 232 3.0 9.0 0.00 0.00 0.00 31 1015.3
20260830072214 91 257 3.0 5.0 0.00 0.00 0.00 31 1014.8
20260830071504 91 248 5.0 6.0 0.00 0.00 0.00 33 1015.3
20260830071215 91 239 6.0 8.0 0.00 0.00 0.00 33 1015.2
20260830070504 90 233 8.0 8.0 0.00 0.00 0.00 34 1015.3
20260830070005 89 230 5.0 10.0 0.00 0.00 0.00 35 1015.5
20260830065504 89 233 4.0 10.0 0.00 0.00 0.00 35 1015.4
20260830065004 92 238 7.0 7.0 0.00 0.00 0.00 34 1015.4
20260830064714 88 240 6.0 10.0 0.00 0.00 0.00 36 1015.5
20260830064212 88 250 6.0 10.0 0.00 0.00 0.00 36 1015.6
20260830063503 88 252 6.0 8.0 0.00 0.00 0.00 36 1015.5
20260830063003 88 251 7.0 10.0 0.00 0.00 0.00 36 1015.5
20260830062504 88 247 8.0 10.0 0.00 0.00 0.00 36 1015.8
20260830062003 87 236 5.0 9.0 0.00 0.00 0.00 36 1015.5
20260830061717 87 230 3.0 8.0 0.00 0.00 0.00 36 1015.5
20260830061003 90 174 1.0 2.0 0.00 0.00 0.00 36 1015.4
20260830060503 90 170 1.0 2.0 0.00 0.00 0.00 37 1015.4
20260830060003 89 170 1.0 2.0 0.00 0.00 0.00 38 1015.6
20260830055504 88 177 0.0 2.0 0.00 0.00 0.00 38 1015.6
20260830055003 88 175 0.0 2.0 0.00 0.00 0.00 38 1015.7
20260830054504 88 178 1.0 3.0 0.00 0.00 0.00 37 1015.6
20260830054213 88 180 1.0 3.0 0.00 0.00 0.00 37 1015.8
20260830053716 88 186 1.0 4.0 0.00 0.00 0.00 36 1015.7
20260830053003 87 289 4.0 4.0 0.00 0.00 0.00 37 1015.7
20260830052504 85 289 4.0 5.0 0.00 0.00 0.00 38 1015.7
20260830052003 85 276 1.0 5.0 0.00 0.00 0.00 38 1015.7
20260830051718 87 181 0.0 1.0 0.00 0.00 0.00 37 1015.5
20260830051003 87 173 0.0 2.0 0.00 0.00 0.00 37 1015.5
20260830050503 87 185 1.0 2.0 0.00 0.00 0.00 38 1015.4
20260830050217 86 179 0.0 2.0 0.00 0.00 0.00 38 1015.4
20260830045503 86 182 0.0 1.0 0.00 0.00 0.00 39 1015.4
20260830045003 85 198 0.0 1.0 0.00 0.00 0.00 40 1015.6
20260830044503 85 195 0.0 1.0 0.00 0.00 0.00 41 1015.6
20260830044003 85 299 0.0 2.0 0.00 0.00 0.00 42 1015.3
20260830043504 85 309 0.0 2.0 0.00 0.00 0.00 41 1015.5
20260830043004 87 118 0.0 1.0 0.00 0.00 0.00 39 1015.6
20260830042712 87 118 0.0 1.0 0.00 0.00 0.00 39 1015.5
20260830042003 86 173 0.0 1.0 0.00 0.00 0.00 41 1015.3
20260830041504 87 234 1.0 5.0 0.00 0.00 0.00 40 1015.4
20260830041216 87 239 3.0 5.0 0.00 0.00 0.00 40 1015.1
20260830040504 86 240 4.0 5.0 0.00 0.00 0.00 40 1015.2
20260830040003 86 235 2.0 5.0 0.00 0.00 0.00 40 1015.1
20260830035504 87 228 2.0 6.0 0.00 0.00 0.00 40 1015.2
20260830035003 87 231 5.0 6.0 0.00 0.00 0.00 40 1015.1
20260830034716 86 230 6.0 6.0 0.00 0.00 0.00 40 1015.3
20260830034003 86 215 2.0 6.0 0.00 0.00 0.00 40 1015.2
20260830033503 86 180 1.0 2.0 0.00 0.00 0.00 41 1015.4
20260830033003 86 181 0.0 2.0 0.00 0.00 0.00 41 1015.3
20260830032503 86 190 0.0 2.0 0.00 0.00 0.00 41 1015.2
20260830032005 87 187 0.0 2.0 0.00 0.00 0.00 40 1015.3
20260830031504 87 184 0.0 2.0 0.00 0.00 0.00 40 1015.3
20260830031003 87 191 0.0 2.0 0.00 0.00 0.00 41 1015.4
20260830030504 87 196 0.0 1.0 0.00 0.00 0.00 41 1015.4
20260830030003 88 190 0.0 1.0 0.00 0.00 0.00 40 1015.2
20260830025716 89 185 0.0 1.0 0.00 0.00 0.00 40 1015.4
20260830025214 89 242 3.0 6.0 0.00 0.00 0.00 39 1015.5
20260830024503 88 243 5.0 6.0 0.00 0.00 0.00 38 1015.4
20260830024004 88 246 5.0 6.0 0.00 0.00 0.00 38 1015.4
20260830023503 89 248 6.0 6.0 0.00 0.00 0.00 39 1015.3
20260830023216 88 248 5.0 7.0 0.00 0.00 0.00 38 1015.4
20260830022504 88 242 0.0 7.0 0.00 0.00 0.00 38 1015.5
20260830022003 89 165 0.0 1.0 0.00 0.00 0.00 40 1015.5
20260830021503 89 165 0.0 1.0 0.00 0.00 0.00 40 1015.6
20260830021213 89 0 0.0 0.0 0.00 0.00 0.00 40 1015.5
20260830020716 89 0 0.0 0.0 0.00 0.00 0.00 40 1015.6
20260830020214 89 0 0.0 0.0 0.00 0.00 0.00 40 1015.6
20260830015503 89 232 2.0 3.0 0.00 0.00 0.00 39 1015.6
20260830015004 89 232 3.0 4.0 0.00 0.00 0.00 38 1015.5
20260830014712 89 232 2.0 4.0 0.00 0.00 0.00 38 1015.5
20260830014215 89 230 0.0 4.0 0.00 0.00 0.00 38 1015.6
20260830013503 89 202 0.0 1.0 0.00 0.00 0.00 40 1015.6
20260830013003 90 200 0.0 1.0 0.00 0.00 0.00 40 1015.7
20260830012504 90 197 0.0 1.0 0.00 0.00 0.00 39 1015.6
20260830012212 90 197 0.0 1.0 0.00 0.00 0.00 39 1015.7
20260830011503 90 0 0.0 0.0 0.00 0.00 0.00 39 1015.6
20260830011004 90 195 0.0 1.0 0.00 0.00 0.00 39 1015.6
20260830010504 90 197 0.0 1.0 0.00 0.00 0.00 39 1015.7
20260830010214 90 192 0.0 1.0 0.00 0.00 0.00 39 1015.6
20260830005503 90 194 0.0 1.0 0.00 0.00 0.00 40 1015.7
20260830005004 90 187 0.0 1.0 0.00 0.00 0.00 40 1015.8
20260830004503 90 178 1.0 2.0 0.00 0.00 0.00 40 1015.7
20260830004003 90 177 0.0 2.0 0.00 0.00 0.00 40 1015.6
20260830003503 89 185 0.0 1.0 0.00 0.00 0.00 40 1015.6
20260830003003 90 171 0.0 1.0 0.00 0.00 0.00 41 1015.5
20260830002504 89 165 0.0 2.0 0.00 0.00 0.00 41 1015.6